Location: Dillon
(41.1766°N, 107.0923°W)
Time: 13:27:15
(UTC+00:00)

QB50P2 - Visible Passes

Search period start: 26 June 2022 00:00
Search period end: 06 July 2022 00:00
Orbit: 589 x 607 km, 97.9° (Epoch: 25 June)

Date Brightness Start Highest point End Pass type
(mag) Time Alt. Az. Time Alt. Az. Time Alt. Az.
26 Jun ? 07:21:20 10° ENE 07:23:11 13° E 07:23:11 13° E visible
26 Jun ? 08:55:08 10° N 08:59:15 53° WNW 08:59:54 47° WSW visible
27 Jun ? 07:31:06 10° NE 07:33:46 17° E 07:33:46 17° E visible
27 Jun ? 09:05:43 10° N 09:09:41 40° WNW 09:10:29 36° W visible
28 Jun ? 07:41:07 10° NE 07:44:21 22° E 07:44:21 22° E visible
28 Jun ? 09:16:21 10° N 09:20:06 31° WNW 09:21:03 28° W visible
29 Jun ? 07:51:17 10° NE 07:54:55 28° E 07:54:55 28° E visible
29 Jun ? 09:27:03 10° NNW 09:30:29 25° WNW 09:31:38 22° W visible
30 Jun ? 08:01:33 10° NNE 08:05:29 36° E 08:05:29 36° E visible
30 Jun ? 09:37:50 10° NNW 09:40:52 19° WNW 09:42:12 17° W visible
01 Jul ? 08:11:52 10° NNE 08:15:58 48° E 08:16:03 48° ESE visible
01 Jul ? 09:48:45 10° NNW 09:51:14 15° WNW 09:52:45 13° W visible
02 Jul ? 08:22:14 10° NNE 08:26:27 64° E 08:26:37 63° ESE visible
02 Jul ? 09:59:54 10° NW 10:01:34 12° WNW 10:03:14 10° W visible
03 Jul ? 08:32:39 10° NNE 08:36:55 84° ESE 08:37:10 78° SSE visible
04 Jul ? 08:43:07 10° N 08:47:22 74° WNW 08:47:43 69° WSW visible
05 Jul ? 07:20:03 10° ENE 07:21:33 12° E 07:21:33 12° E visible
05 Jul ? 08:53:38 10° N 08:57:48 56° WNW 08:58:16 52° WSW visible
